Location: *
(3.7280°N, 163.4140°E)
Time: 09:53:26
(UTC+00:00)

Daily predictions for brighter satellites

Satellite Brightness Start Highest point End
(mag) Time Altitude Azimuth Time Altitude Azimuth Time Altitude Azimuth
Cosmos 1943 Rocket 4.3 16:40:01 10° SSE 16:44:09 22° ESE 16:48:15 10° NE
USA 215 3.7 16:54:14 10° SSE 16:59:22 50° SSW 16:59:22 50° SSW
Okean O Rocket 3.9 16:58:37 12° NE 17:01:40 23° ESE 17:05:11 10° SSE
CZ-2C R/B 4.3 16:58:16 10° NE 17:02:30 29° ESE 17:06:51 10° SSE
Ariane 42L Rocket 4.1 17:02:41 72° NW 17:03:22 76° N 17:35:50 10° E
ARIANE R/B 4.2 17:06:10 59° NE 17:06:10 59° NE 17:15:41 10° E
Cosmos 1725 Rocket 4.4 17:08:10 42° NNE 17:10:09 61° E 17:16:21 10° SSE
Mugunghwa Rocket 4.3 17:15:17 49° NNE 17:15:26 49° NNE 17:21:35 10° E
COSMOS 2406 3.6 17:18:30 50° SSW 17:18:30 50° SSW 17:22:52 10° S
Maqsat-H 4.2 17:15:54 47° WNW 17:20:46 82° N 23:35:01 10° E
Lacrosse 5 rocket 3.0 17:20:03 22° SSE 17:21:39 31° ESE 17:25:16 10° NE
Cosmos 2369 Rocket 2.3 17:17:46 10° S 17:23:26 72° ESE 17:29:07 10° NNE
ARIANE 5 R/B 3.9 17:23:56 37° SW 17:25:56 47° S 17:29:04 10° ESE
IDEFIX/ARIANE 42P 4.2 17:30:58 22° SSW 17:30:58 22° SSW 17:32:46 10° SSW
ARIANE 5 R/B 3.0 17:27:18 56° WSW 17:28:26 74° S 17:53:34 10° E
Cosmos 2016 Rocket 4.0 17:29:51 59° W 17:29:51 59° W 17:35:54 10° S
Cosmos 2082 Rocket 4.0 17:25:07 10° NNE 17:29:51 27° ENE 17:34:35 10° SE
COSMOS 2441 4.4 17:28:57 31° NNE 17:31:19 77° ESE 17:36:13 10° S
Cosmos 1864 Rocket 4.4 17:41:27 43° NW 17:43:13 61° W 17:49:18 10° S
GPS 2-05 Rocket1 3.6 17:46:05 46° E 17:46:05 46° E 17:48:29 10° ESE
COSMOS 2455 3.5 17:46:59 35° WSW 17:46:59 35° WSW 17:52:19 10° S
Cosmos 1626 Rocket 3.4 17:49:58 59° NW 17:50:35 69° W 17:54:52 10° S
Cosmos 2228 3.2 17:46:40 10° S 17:50:53 69° E 17:55:04 10° N
USA 234 3.9 17:45:53 10° N 17:50:47 31° NW 17:50:47 31° NW
Ariane H10 4.3 17:47:01 25° W 17:52:08 53° SSW 17:55:25 10° ESE
Cosmos 1470 3.6 17:49:06 10° S 17:52:54 50° E 17:56:39 10° NNE
CZ-3 R/B 4.4 17:41:32 21° W 17:55:16 31° SW 18:04:10 10° SSE
Cosmos 2233 Rocket 3.9 17:50:45 10° N 17:57:00 82° W 18:03:19 10° S
FALCON 9 R/B 4.0 17:52:17 10° SSW 17:57:17 20° SSE 17:59:57 10° ESE
Cosmos 1733 3.2 17:56:19 10° SSW 18:00:06 55° W 18:00:42 48° NW
Cosmos 1602 Rocket 3.5 17:58:33 34° NNW 18:00:17 63° W 18:04:36 10° S
SWIFT 3.9 18:00:26 21° N 18:01:31 23° NNE 18:04:57 10° ENE
Cosmos 2084 Rocket 3.4 18:03:02 26° NNW 18:05:14 72° ENE 18:09:17 10° SSE
Cosmos 1624 Rocket 4.1 18:01:38 10° N 18:06:47 78° ENE 18:11:57 10° SSE
Cosmos 1726 Rocket 3.6 18:04:15 10° SSW 18:08:28 53° W 18:12:41 10° N
OAO 3 Rocket 4.1 18:13:41 23° W 18:15:38 33° SW 18:19:50 10° SSE
Cosmos 494 Rocket 3.9 18:15:20 10° SSW 18:20:34 74° WNW 18:25:48 10° N
In-Cosmos 22 4.5 18:16:00 11° NNW 18:21:08 46° W 18:26:34 10° SSW
SJ-12 3.8 18:19:39 10° N 18:23:43 72° WNW 18:27:47 10° SSW
Okean-O 4.0 18:23:16 10° NNE 18:27:27 42° ESE 18:31:38 10° S
Cosmos 1943 Rocket 3.1 18:23:12 10° SW 18:27:34 24° WNW 18:31:56 10° NNW
Cosmos 1269 Rocket 4.4 18:24:57 10° SW 18:29:52 39° WNW 18:34:47 10° N
GPS 2-14 Rocket1 4.5 18:28:57 15° NW 18:30:23 18° NNW 18:33:15 10° NNE
Ariane H10+ 3.6 18:32:07 10° SSW 18:33:28 15° SSE 18:35:19 10° SE
Cosmos 1833 Rocket 3.1 18:28:33 11° NW 18:33:34 42° WSW 18:38:50 10° S
SKYMED 2 4.4 18:30:09 10° SSE 18:34:23 52° ENE 18:38:35 10° N
ARIANE 5 DEB (SYLDA) 3.5 18:33:17 11° WSW 18:35:37 52° SSE 18:42:23 10° E
Gbstr 26 Del rocket 3.7 18:32:21 10° SW 18:37:38 76° NW 18:44:14 10° NNE
Spelda 3.9 18:21:34 12° W 18:37:44 76° S 18:41:36 10° ESE
Okean O Rocket 3.2 18:36:04 13° NW 18:37:45 15° WNW 18:40:22 10° WSW
Ariane H10-3 2.4 18:37:09 16° W 18:39:08 81° N 18:44:48 10° E
CZ-4B R/B 4.2 18:35:41 10° NNW 18:39:44 22° WNW 18:43:45 10° SW
CZ-2C R/B 3.9 18:37:32 10° NW 18:40:28 16° WNW 18:43:27 10° WSW
Cosmos 1674 3.1 18:39:15 10° NNW 18:42:50 41° W 18:46:25 10° SSW
GPS 2-04 Rocket1 3.0 18:40:34 13° WNW 18:43:44 46° SW 18:47:15 10° SE
Cosmos 2056 Rocket 4.1 18:39:41 10° NW 18:44:41 39° WSW 18:49:42 10° S
Cosmos 1758 Rocket 3.8 18:48:03 10° NNW 18:52:09 44° W 18:56:15 10° SSW
Cosmos 1812 Rocket 3.9 18:48:18 10° S 18:52:44 72° E 18:57:06 10° N
ALOS 2.6 18:49:21 10° NNE 18:53:59 73° ESE 18:58:38 10° S
Meteor 2-20 Rocket 4.4 18:48:49 10° SSW 18:54:54 68° W 19:00:56 10° N
